GEFSSGP_con_prob3kmehi_120.txt.gz
EHI
0 0 0 0 0 0 0 0 0 0 0 0 0 0 0 1 2 6 12 15 17 23 26 23 20 20 23 28 34 35 32 30 24 16 9 7 4 1 0 0 0 0 0 0 0 0 0 0 0
0 0 0 0 0 0 0 0 0 0 0 0 0 0 2 3 5 9 15 18 20 23 25 23 22 20 20 26 32 33 31 28 23 16 9 5 3 1 0 0 0 0 0 0 0 0 0 0 0
0 0 0 0 0 0 0 0 0 0 0 0 0 1 4 7 10 14 19 21 22 23 24 25 24 21 20 24 29 31 29 25 18 12 6 3 1 0 0 0 0 0 0 0 0 0 0 0 0
0 0 0 0 0 0 0 0 0 0 0 0 0 2 6 11 14 19 23 21 20 21 23 26 26 22 21 24 26 27 25 19 12 6 2 1 0 0 0 0 0 0 0 0 0 0 0 0 0
0 0 0 0 0 0 0 0 0 0 0 0 2 5 10 16 19 23 24 19 16 17 21 26 25 22 21 24 24 21 17 13 7 3 0 0 0 0 0 0 0 0 0 0 0 0 0 0 0
0 0 0 0 0 0 0 0 0 0 0 1 3 8 16 23 27 28 25 19 14 15 21 24 22 18 18 21 21 17 13 10 6 2 0 0 0 0 0 0 0 0 0 0 0 0 0 0 0
0 0 0 0 0 0 0 0 0 0 0 2 4 9 21 33 38 35 28 21 16 17 21 21 16 11 11 13 15 14 11 9 6 3 1 1 1 0 0 0 0 0 0 0 0 0 0 0 0
0 0 0 0 0 0 0 0 0 0 1 3 5 11 27 46 52 46 36 27 21 19 19 17 12 7 5 6 8 8 8 6 5 4 3 2 1 0 0 0 0 0 0 0 0 0 0 0 0
0 0 0 0 0 0 0 0 0 1 2 4 7 16 35 55 61 56 47 37 28 20 16 13 9 6 4 3 4 4 5 5 5 5 4 3 1 1 1 1 2 1 0 0 0 0 0 0 0
0 0 0 0 0 0 0 0 0 1 1 3 9 23 42 56 61 59 54 45 34 23 16 12 10 7 5 5 5 6 6 7 7 5 4 3 2 2 2 2 2 1 0 0 0 0 0 0 0
0 0 0 0 0 0 0 0 0 1 2 4 12 28 45 53 54 54 52 47 38 27 18 15 14 11 8 8 9 10 11 10 7 4 3 3 3 2 2 2 2 2 1 0 0 1 1 1 0
0 0 0 0 0 0 0 0 0 1 5 9 16 29 41 46 47 48 47 45 40 30 22 19 18 17 15 13 14 14 12 9 6 3 3 3 3 2 3 4 4 3 2 1 1 2 2 1 0
0 0 0 0 0 0 0 0 0 3 8 13 18 26 32 34 38 42 43 41 36 29 23 21 21 21 19 17 15 12 10 8 6 5 3 3 3 3 4 5 4 2 1 1 1 2 2 1 0
0 0 0 0 0 0 0 0 1 5 11 15 19 23 25 26 30 35 38 36 29 24 20 18 19 20 19 16 12 8 8 8 7 6 5 3 3 3 3 3 2 1 0 1 1 2 2 1 0
0 0 0 0 0 0 0 0 3 9 13 16 18 21 23 24 26 28 30 29 24 20 16 14 14 15 15 13 10 8 8 7 6 6 5 3 2 2 2 2 1 1 1 1 2 3 3 1 1
0 0 0 0 0 0 0 1 6 10 13 16 17 19 22 25 24 23 22 20 17 15 13 10 9 10 12 12 13 11 9 6 4 4 3 1 0 1 3 2 1 1 1 2 4 5 3 2 2
0 0 0 0 0 0 0 2 6 9 12 14 15 17 21 23 22 19 16 14 12 9 8 8 8 9 10 12 13 11 8 4 2 1 1 0 0 1 2 3 2 2 2 2 3 4 3 1 1
0 0 0 0 0 0 0 3 6 8 10 13 14 15 17 19 18 14 11 9 7 4 5 6 8 8 8 9 10 7 4 1 0 0 0 0 0 0 1 2 2 1 1 1 2 3 2 1 0
0 0 0 0 0 0 0 3 7 8 9 11 12 13 14 15 14 11 8 5 4 3 3 4 5 6 5 5 6 4 2 2 1 1 1 1 0 0 0 1 1 1 0 0 1 1 1 0 0
0 0 0 0 0 0 0 3 7 9 7 9 11 11 13 15 12 9 6 4 2 2 2 2 3 3 2 2 3 4 4 3 2 1 1 0 0 0 0 0 0 0 0 0 0 0 0 0 0
0 0 0 0 0 0 0 2 6 9 9 10 11 11 13 15 13 9 6 3 2 1 1 2 3 3 2 2 2 3 4 3 2 1 0 0 0 0 0 0 0 0 0 0 1 1 0 0 0
0 0 0 0 0 0 0 0 4 9 11 12 12 12 12 15 14 10 5 2 1 0 0 2 4 4 4 2 1 1 1 1 1 0 0 0 0 0 0 0 0 0 0 1 1 0 0 0 0
0 0 0 0 0 0 0 0 2 6 9 12 14 13 13 14 13 8 3 0 0 0 0 2 3 4 4 2 0 0 0 0 0 0 0 0 0 0 0 0 0 0 0 0 0 0 0 0 0
0 0 0 0 0 0 0 0 1 2 4 8 13 15 15 14 11 6 3 1 1 0 0 1 2 3 2 1 0 0 0 0 0 0 0 0 0 0 0 0 0 0 0 0 0 0 0 0 0
0 0 0 0 0 0 0 0 0 0 1 4 10 15 16 13 10 7 5 3 2 1 0 0 1 2 1 1 1 1 0 0 0 0 0 0 0 0 0 0 0 0 0 0 0 0 0 0 0
0 0 0 0 0 0 0 0 0 0 0 2 8 15 17 15 12 10 6 4 3 1 0 0 1 1 1 1 2 2 1 0 0 0 0 0 0 0 0 0 0 0 0 0 0 0 0 0 0
0 0 0 0 0 0 0 0 0 0 0 2 8 17 19 17 15 11 5 2 1 0 0 0 1 2 2 2 2 2 1 0 0 0 0 0 0 0 0 0 0 0 0 0 0 0 0 0 0
0 0 0 0 0 0 0 0 0 0 1 3 8 16 19 17 13 9 4 1 0 0 0 0 1 3 4 3 2 2 1 1 0 0 0 0 0 0 0 0 0 0 0 0 0 0 0 0 0
0 0 0 0 0 0 0 0 0 1 2 2 6 12 16 15 11 7 4 2 1 0 0 0 1 3 5 5 5 4 4 3 1 0 0 0 0 0 0 0 0 0 0 0 0 0 0 0 0
0 0 0 0 0 0 0 0 0 1 1 1 3 9 14 14 9 5 4 2 1 0 0 1 2 3 4 6 6 6 6 4 1 0 0 0 0 0 0 0 0 0 0 0 0 0 0 0 0

GEFSSGP_con_prob3kmehi_126.txt.gz
EHI
3 8 15 16 13 8 3 1 0 1 1 2 2 4 11 19 21 21 28 53 74 65 48 41 37 24 11 4 2 1 0 0 0 0 0 0 0 0 0 0 0 0 0 0 0 0 0 0 0
3 7 10 11 10 6 2 0 0 1 1 1 1 7 17 22 22 24 35 58 70 60 46 41 38 28 15 7 4 2 2 1 1 1 1 0 0 0 0 0 0 0 0 0 0 0 0 0 0
2 3 5 5 4 2 0 0 0 0 0 0 3 13 22 23 22 29 43 59 63 54 48 47 44 34 22 13 8 6 4 3 2 2 2 1 0 0 0 0 0 0 0 0 0 0 0 0 0
0 1 2 2 1 0 0 0 0 0 0 2 9 20 26 25 28 35 43 54 59 56 51 51 48 40 28 18 11 7 5 4 3 3 2 1 0 0 0 0 0 0 0 0 0 0 0 0 0
0 1 1 1 0 0 0 0 0 0 1 4 15 28 33 32 35 38 38 47 60 63 55 51 51 42 30 20 12 7 5 3 3 3 1 0 0 0 0 0 0 0 0 0 0 0 0 0 0
0 0 0 0 0 0 0 0 0 0 1 5 16 31 39 40 39 37 36 44 61 68 58 50 48 40 28 19 12 7 4 2 3 2 1 0 0 0 0 0 0 0 0 0 0 0 0 0 0
0 0 0 0 0 0 0 0 0 1 3 7 14 29 44 46 39 36 39 48 62 67 56 44 38 31 23 17 12 6 3 2 2 1 0 0 0 0 0 0 0 0 0 0 0 0 0 0 0
0 0 0 0 0 0 0 0 0 2 5 8 16 32 46 48 41 39 44 53 65 65 50 36 28 21 15 11 8 5 3 3 1 0 0 0 0 1 1 1 0 0 0 0 0 0 0 0 0
0 0 0 0 0 0 0 0 0 2 6 13 23 38 48 49 45 44 48 57 67 65 50 35 26 18 10 7 6 5 4 4 2 1 0 0 0 1 3 5 4 1 0 0 0 0 0 0 0
0 0 0 0 0 0 0 0 0 1 6 16 28 41 50 53 51 50 53 61 70 68 57 42 29 18 11 9 11 10 8 6 4 3 2 1 1 2 6 10 8 3 0 0 0 0 0 0 0
0 0 0 0 0 0 0 0 0 1 5 14 26 37 47 52 53 52 55 65 72 70 62 50 35 25 21 21 19 16 12 9 7 7 5 4 5 8 11 11 7 2 0 0 0 0 1 1 1
0 0 0 0 0 0 0 0 0 2 5 12 20 29 41 48 51 53 58 65 69 67 63 55 45 41 43 38 28 20 16 15 15 14 11 9 11 14 14 11 7 4 3 3 1 1 2 2 1
0 0 0 0 0 0 0 0 0 3 8 12 16 24 35 46 53 57 62 65 65 65 64 61 55 55 58 51 35 25 23 24 26 24 17 14 16 18 16 14 11 8 8 7 4 2 2 2 1
0 0 0 0 0 0 0 1 3 7 11 12 15 23 34 47 56 60 63 63 62 63 64 63 58 59 60 52 42 33 29 31 32 29 23 18 18 19 16 16 15 11 11 11 8 5 4 2 1
0 0 0 0 0 0 0 2 7 12 13 14 17 25 36 49 57 58 57 57 58 61 62 58 54 53 54 51 43 35 30 30 32 30 24 20 18 14 12 12 12 11 10 10 9 7 6 4 2
0 0 0 0 0 0 0 4 10 14 14 15 19 28 40 49 53 52 51 51 54 60 59 52 48 50 52 50 42 35 30 28 26 24 21 18 13 8 6 7 9 9 8 6 6 7 7 5 4
0 0 0 0 0 0 0 5 13 15 14 17 23 31 40 45 46 46 47 47 51 56 55 51 51 53 53 48 43 39 34 26 20 18 16 14 8 5 5 7 7 6 4 2 3 6 7 5 5
0 0 0 0 0 0 1 7 14 16 14 17 27 36 41 44 42 41 42 43 45 48 48 50 54 56 53 45 40 38 31 21 16 15 13 8 5 3 4 5 5 4 2 1 3 5 5 4 4
0 0 0 0 0 0 2 8 15 16 14 17 29 38 43 44 39 35 35 37 38 40 41 44 48 49 45 38 33 29 23 15 11 10 7 4 2 2 2 2 2 1 2 1 2 3 2 1 2
0 0 0 0 0 0 2 8 15 17 15 18 27 35 40 41 35 30 29 31 33 34 35 36 38 37 33 29 25 20 15 11 10 9 4 1 0 1 2 2 1 1 2 2 1 1 0 0 1
0 0 0 0 0 0 1 6 14 19 18 21 25 31 36 38 34 28 26 27 28 27 27 29 32 31 26 21 16 12 9 8 11 12 6 1 0 1 2 2 1 1 1 1 0 0 0 0 0
0 0 0 0 0 0 0 4 12 19 24 28 29 30 35 37 36 31 26 24 24 21 21 28 33 32 26 19 12 7 4 5 8 10 7 3 2 3 2 1 0 0 1 1 0 0 0 0 0
0 0 0 0 0 0 0 2 8 18 26 33 34 34 36 37 36 32 26 23 21 18 20 28 33 31 24 17 10 6 4 4 7 9 8 4 2 2 1 0 0 0 0 1 0 0 0 0 0
0 0 0 0 0 0 0 0 4 12 22 31 36 38 37 35 33 32 28 24 20 18 19 23 27 25 19 13 10 8 6 8 10 10 6 3 2 1 1 0 0 0 0 0 0 0 0 0 0
0 0 0 0 0 0 0 0 1 5 13 23 33 38 38 34 32 32 32 27 21 18 18 19 21 20 15 11 10 11 11 11 12 7 2 0 1 2 3 2 0 0 0 0 0 0 0 0 0
0 0 0 0 0 0 0 0 1 2 6 14 25 33 35 35 35 35 35 30 22 18 17 18 20 20 17 14 12 13 13 11 8 4 1 0 1 5 6 3 0 0 0 0 0 0 0 0 0
0 0 0 0 0 0 0 0 1 3 5 9 18 26 31 35 38 38 35 29 22 18 17 17 20 21 19 17 14 12 12 9 6 4 2 1 3 6 6 3 0 0 0 0 0 0 0 0 0
0 0 0 0 0 0 0 0 2 3 5 7 15 25 31 36 40 40 35 28 21 17 16 17 20 21 20 18 14 12 10 9 8 8 5 5 6 6 4 1 0 0 0 0 0 0 0 0 0
0 0 0 0 0 0 0 0 1 2 4 6 13 24 32 37 40 41 37 28 20 16 15 17 21 22 20 18 15 14 13 12 12 11 9 8 7 5 2 0 0 0 0 0 0 0 0 0 0
0 0 0 0 0 0 0 0 0 1 2 5 11 23 32 36 39 40 36 28 20 15 13 16 21 23 21 19 17 16 16 15 14 13 11 9 7 4 1 0 0 0 0 0 0 0 1 1 1

GEFSSGP_con_prob3kmehi_132.txt.gz
EHI
6 3 1 0 0 1 1 1 0 1 4 9 13 15 17 16 12 9 12 25 38 42 39 41 47 45 33 24 17 11 6 3 1 0 0 0 0 0 0 0 0 0 0 0 0 0 0 0 0
2 1 0 0 1 2 2 1 1 2 7 14 18 18 17 15 13 13 20 34 47 46 40 42 48 46 34 23 16 10 5 2 0 0 0 0 0 0 0 0 0 0 0 0 0 0 0 0 0
0 0 0 0 2 3 2 1 2 4 10 17 22 21 16 13 16 21 35 52 58 52 45 46 49 45 33 22 14 10 6 2 0 0 0 0 0 0 0 0 0 0 0 0 0 0 0 0 0
0 0 0 1 3 3 1 2 5 9 14 21 26 24 18 18 27 39 55 66 65 58 52 50 50 43 31 23 16 13 8 3 0 0 0 0 0 0 0 0 0 0 0 0 0 0 0 0 0
0 0 0 0 1 1 1 4 9 13 18 26 32 29 24 31 48 60 66 71 71 64 56 53 50 41 31 25 21 17 11 6 2 1 0 0 0 0 0 0 0 0 0 0 0 1 1 1 0
0 0 0 0 0 0 1 4 8 13 19 27 34 33 30 41 59 66 66 69 72 68 59 53 49 40 31 26 23 19 14 8 4 2 1 0 0 0 0 0 0 0 0 0 1 2 2 2 1
0 0 0 0 0 0 1 3 6 11 16 24 33 35 35 43 56 60 63 67 70 68 61 52 44 37 30 25 22 18 14 10 6 3 1 0 0 0 0 0 0 0 0 0 1 2 3 3 3
0 0 0 0 0 0 0 2 6 12 19 25 30 35 37 43 52 58 62 66 67 64 58 49 40 34 28 23 20 16 12 9 6 3 1 0 0 0 0 0 0 0 0 0 1 2 3 5 5
0 0 0 0 0 0 0 1 6 17 28 31 31 34 39 44 52 59 63 64 62 55 48 44 39 33 27 22 17 14 10 7 5 2 1 1 0 0 0 0 0 0 0 0 0 1 4 5 5
0 0 0 0 0 0 1 3 8 19 29 34 35 36 39 44 53 60 62 59 54 47 40 38 35 29 24 20 16 11 7 5 3 2 1 1 0 0 0 0 0 0 0 0 0 1 3 3 2
0 0 0 0 0 0 2 4 6 13 21 29 35 38 40 44 52 59 58 53 49 44 39 33 30 25 19 16 13 8 5 4 3 2 1 0 0 0 1 1 1 1 0 0 0 0 1 0 0
0 0 0 1 1 1 2 3 4 7 14 25 35 39 41 45 51 55 54 50 48 44 38 31 25 19 14 12 10 7 4 3 3 2 1 0 0 0 0 1 1 1 0 0 0 0 0 0 0
0 0 0 1 2 2 3 5 6 9 16 28 36 38 40 44 49 52 52 51 50 45 37 29 22 15 10 9 8 6 3 2 2 2 1 0 0 0 0 0 0 0 0 0 0 0 0 0 0
0 0 0 1 1 1 3 7 9 13 22 33 37 37 39 43 47 50 52 52 51 47 38 30 23 16 11 10 9 7 3 1 1 1 0 0 0 0 0 0 0 0 0 0 0 0 0 0 0
0 0 0 0 0 0 3 7 10 16 25 35 38 37 38 42 46 48 49 49 48 45 39 31 24 19 16 13 11 9 5 2 0 0 0 0 0 0 0 0 0 0 0 0 0 0 0 0 0
0 0 0 0 0 0 2 6 10 16 26 35 40 41 42 44 44 43 43 43 41 39 35 30 25 23 19 14 10 7 5 3 1 0 0 0 0 0 0 1 1 1 1 0 0 0 0 0 0
0 0 0 0 0 0 1 5 11 16 25 36 43 47 47 45 41 37 36 35 32 30 29 28 27 24 19 14 8 6 5 3 2 1 1 1 0 0 0 1 2 2 1 0 0 0 0 0 0
0 0 0 0 0 1 2 6 13 19 27 37 45 50 50 44 36 32 32 30 26 25 25 27 27 23 18 13 9 6 4 3 2 2 2 1 0 0 0 0 1 1 1 0 0 0 0 0 0
0 0 0 0 0 1 3 8 15 22 30 39 45 48 47 41 34 29 29 26 24 23 23 24 23 19 15 11 7 5 3 3 3 3 2 1 0 0 0 0 0 0 0 0 0 0 0 0 0
0 0 0 0 0 1 3 7 14 21 29 37 44 46 44 39 32 28 26 24 21 20 18 17 16 13 9 6 4 2 1 2 2 2 1 0 0 0 0 0 0 0 0 0 0 0 0 0 0
0 0 0 0 0 1 2 5 10 16 23 33 42 45 42 36 31 26 23 21 19 16 13 12 10 7 3 3 2 1 0 1 1 1 0 0 0 0 0 0 0 0 0 0 0 0 0 0 0
0 0 0 0 1 1 1 2 5 11 17 27 36 39 36 33 29 25 21 19 16 12 10 9 6 3 1 1 1 0 0 0 0 0 0 0 0 0 0 0 0 0 0 0 0 0 0 0 0
0 0 0 0 0 0 0 0 3 8 13 20 27 31 31 29 26 23 20 18 14 11 9 7 5 2 1 0 0 0 0 0 0 0 0 0 0 0 0 0 0 0 0 0 0 0 0 0 0
0 0 0 0 0 0 0 0 1 4 8 15 21 26 28 27 23 21 19 18 14 12 9 6 5 3 1 0 0 0 0 0 0 0 0 0 0 0 0 0 0 0 0 0 0 0 0 0 0
0 0 0 0 0 0 0 0 0 1 5 12 18 22 23 23 21 21 20 19 16 14 10 6 4 2 0 0 0 0 0 0 0 0 0 0 0 0 0 0 0 0 0 0 0 0 0 0 0
0 0 0 0 0 0 0 0 0 1 4 9 15 20 21 21 21 21 21 20 18 16 10 5 2 0 0 0 0 0 0 0 0 0 0 0 0 0 0 0 0 0 0 0 0 0 0 0 0
0 0 0 0 0 0 0 0 0 1 3 8 13 19 21 22 22 22 21 20 20 18 10 3 1 1 0 0 0 0 0 0 0 0 0 0 0 0 0 0 0 0 0 0 0 0 0 0 0
0 0 0 0 0 0 0 0 0 1 3 7 11 15 19 21 23 23 21 19 19 17 9 3 2 2 1 1 1 0 0 0 0 0 0 0 0 0 0 0 0 0 0 0 0 0 0 0 0
0 0 0 0 0 0 0 0 0 0 2 6 8 10 14 20 23 23 20 16 15 14 9 3 3 3 3 2 2 1 0 0 0 0 0 0 0 0 0 0 0 0 0 0 0 0 0 0 0
0 0 0 0 0 0 0 0 0 0 1 4 6 8 12 19 24 23 19 15 13 13 8 4 3 4 3 3 3 2 1 0 0 0 0 0 0 0 0 0 0 0 0 0 0 0 0 0 0

GEFSSGP_con_prob3kmehi_138.txt.gz
EHI
0 0 0 0 0 0 0 0 0 1 0 1 2 2 1 1 1 1 3 10 19 22 19 22 31 35 33 29 26 25 25 22 16 10 6 3 1 0 0 0 0 0 0 0 0 0 0 0 0
0 0 0 0 0 0 0 0 1 1 1 1 3 4 3 2 2 4 5 11 20 24 22 25 34 38 36 31 26 24 22 17 12 7 4 2 1 0 0 0 0 0 0 0 0 0 0 0 0
0 0 0 0 0 0 0 0 1 2 2 2 4 5 3 3 4 5 9 16 24 27 25 31 40 43 38 32 27 23 19 12 7 4 2 1 0 0 0 0 0 0 0 0 0 0 0 0 0
0 0 0 0 0 0 0 0 2 3 3 3 5 7 5 4 6 10 17 25 31 30 28 34 45 46 39 33 28 23 16 8 4 3 2 0 0 0 0 0 0 0 0 0 0 0 0 0 0
0 0 0 0 0 0 0 2 4 6 6 7 10 12 10 9 16 25 30 34 38 36 32 35 44 46 39 33 29 23 15 7 3 3 1 0 0 0 0 0 0 0 0 0 0 0 0 0 0
0 0 0 0 0 0 1 3 7 10 12 12 15 17 15 18 31 41 41 39 41 41 39 39 42 42 38 33 29 23 13 7 4 3 1 0 0 0 0 0 0 0 0 0 0 0 1 1 0
0 0 0 0 0 0 1 2 7 13 16 16 18 20 20 26 39 48 48 44 42 43 44 45 43 39 35 31 27 21 13 8 6 4 1 0 0 0 0 0 0 0 0 1 1 1 2 2 1
0 0 0 0 0 0 1 2 7 15 21 21 20 21 24 34 46 53 54 50 44 42 44 46 44 39 34 29 24 18 13 9 8 6 2 0 0 0 0 0 0 0 0 1 1 1 2 2 1
0 0 0 0 0 0 1 3 8 18 25 24 21 22 31 45 56 60 59 55 48 40 39 41 42 37 32 27 22 16 12 10 8 5 2 0 0 0 0 0 0 0 0 0 0 1 1 1 1
0 0 0 0 0 1 2 4 10 21 25 20 19 29 43 53 60 62 58 54 49 41 35 35 34 31 28 27 23 16 11 9 7 4 1 0 0 0 0 0 0 0 0 0 0 0 0 0 1
0 0 0 0 0 1 2 4 11 18 18 16 23 38 50 56 59 58 53 49 47 42 36 31 28 26 25 26 25 18 12 8 6 3 1 1 0 0 0 0 0 0 0 0 0 0 0 0 0
0 0 0 0 0 1 3 4 8 11 11 16 30 44 51 53 53 50 45 43 43 41 38 33 28 24 24 26 25 19 13 8 5 3 2 1 0 0 0 0 0 0 0 0 0 0 0 0 0
0 0 0 0 1 2 4 5 5 7 11 22 36 47 50 47 44 42 39 37 38 38 36 33 30 26 26 26 24 19 14 9 4 1 1 1 0 0 0 0 0 0 0 0 0 0 0 0 0
0 0 0 0 1 3 5 5 5 8 17 30 40 47 47 44 42 41 38 35 34 33 32 31 31 30 28 25 22 18 14 9 4 1 0 0 0 0 1 0 0 0 0 0 0 0 0 0 0
0 0 0 0 0 2 4 4 5 10 21 33 39 43 44 43 43 41 36 34 30 28 29 31 33 31 27 21 16 13 10 6 3 1 0 0 0 0 0 0 0 0 0 0 0 0 0 0 0
0 0 0 0 0 0 1 2 5 12 21 28 32 35 37 39 40 36 31 29 26 26 28 29 29 26 21 15 11 8 5 3 1 0 0 0 0 0 0 0 0 0 0 0 0 0 0 0 0
0 0 0 0 0 0 0 1 5 13 19 22 25 29 33 36 36 32 28 25 23 23 24 24 21 18 14 10 7 5 3 1 0 0 0 0 0 0 0 0 0 0 0 0 0 0 0 0 0
0 0 0 0 0 0 0 1 5 12 18 20 22 26 31 33 33 31 27 24 22 20 19 19 17 12 9 6 4 3 1 0 0 0 0 0 0 0 0 0 0 0 0 0 0 0 0 0 0
0 0 0 0 0 0 0 1 4 11 18 23 23 25 29 31 31 29 27 24 23 19 15 15 14 9 5 3 1 1 1 0 0 0 0 1 1 0 0 0 0 0 0 0 0 0 0 0 0
0 0 0 0 0 0 0 0 3 9 17 21 23 24 27 30 31 30 27 24 22 18 14 12 9 5 3 2 1 0 0 0 0 0 1 1 1 1 0 0 0 0 0 0 0 0 0 0 0
0 0 0 0 0 0 0 0 2 7 12 16 20 22 24 29 31 30 27 22 19 16 13 11 7 4 2 1 0 0 0 0 0 0 0 0 0 1 0 0 0 0 0 0 0 0 0 0 0
0 0 0 0 0 0 0 0 1 4 6 11 16 18 22 28 29 27 25 20 16 14 12 9 5 3 1 0 0 0 0 0 0 0 0 0 0 0 0 0 0 0 0 0 0 0 0 0 0
0 0 0 0 0 0 0 0 0 1 2 5 10 15 20 23 24 22 19 16 13 12 9 5 2 1 0 0 0 0 0 0 0 0 0 0 0 0 0 0 0 0 0 0 0 0 0 0 0
0 0 0 0 0 0 0 0 0 0 1 3 6 11 17 19 18 15 12 10 9 8 6 3 0 0 0 0 0 0 0 0 0 0 0 0 0 0 0 0 0 0 0 0 0 0 0 0 0
0 0 0 0 0 0 0 0 0 0 1 3 6 9 15 17 14 10 8 6 5 5 4 2 1 0 0 0 0 0 0 0 0 0 0 0 0 0 0 0 0 0 0 0 0 0 0 0 0
0 0 0 0 0 0 0 0 0 0 0 2 5 8 13 15 13 9 7 6 4 3 3 2 1 0 0 0 0 0 0 0 0 0 0 0 0 0 0 0 0 0 0 0 0 0 0 0 0
0 0 0 0 0 0 0 0 0 0 0 1 3 7 11 13 11 8 7 6 4 3 3 2 1 0 0 0 0 0 0 0 0 0 0 0 0 0 0 0 0 0 0 0 0 0 0 0 0
0 0 0 0 0 0 0 0 0 0 0 1 3 5 9 10 9 7 6 6 4 3 3 3 1 0 0 0 0 0 0 0 0 0 0 0 0 0 0 0 0 0 0 0 0 0 0 0 0
0 0 0 0 0 0 0 0 0 0 0 1 2 4 5 5 5 5 5 5 4 4 4 3 1 0 0 0 0 0 0 0 0 0 0 0 0 0 0 0 0 0 0 0 0 0 0 0 0
0 0 0 0 0 0 0 0 0 0 0 0 1 3 3 2 2 3 4 4 4 5 5 3 1 0 0 0 0 0 0 0 0 0 0 0 0 0 0 0 0 0 0 0 0 0 0 0 0

GEFSSGP_con_prob3kmehi_144.txt.gz
EHI
1 1 0 1 1 1 0 0 0 0 0 0 0 0 0 0 0 2 6 9 14 18 17 12 8 8 13 18 19 17 15 13 10 6 3 1 0 0 0 0 0 0 0 0 0 0 0 0 0
1 0 0 0 0 0 0 0 0 0 0 0 0 0 0 0 1 4 9 13 15 17 17 14 12 10 13 18 20 17 14 12 10 6 3 1 0 0 0 0 0 0 0 0 0 0 0 0 0
0 0 0 0 0 0 0 0 0 0 0 0 0 1 2 4 5 9 15 18 17 16 18 19 17 14 15 19 21 18 14 11 9 6 3 1 0 0 0 0 0 0 0 0 0 0 0 0 0
0 0 0 0 0 0 0 0 0 0 0 0 0 2 6 10 11 16 23 25 20 16 18 21 21 17 17 19 21 19 15 12 9 6 2 0 0 0 0 0 0 0 0 0 0 0 0 0 0
0 0 0 0 0 0 0 0 0 0 1 1 1 4 10 16 20 26 30 28 21 15 17 22 22 20 18 18 19 18 16 13 9 6 3 1 0 0 0 0 0 0 0 0 0 0 0 0 0
0 0 0 0 0 0 0 0 0 1 3 3 2 5 14 26 35 37 34 28 21 17 19 23 22 19 18 17 16 16 15 12 8 5 3 2 1 0 0 0 0 0 0 0 0 0 0 0 0
0 0 0 0 0 0 0 0 1 3 5 5 3 5 21 42 52 47 37 28 23 20 21 22 19 15 14 14 13 12 12 9 7 5 4 3 1 0 0 0 0 0 0 0 0 0 0 0 0
0 0 0 0 0 0 0 0 1 3 5 5 4 7 28 57 67 60 48 35 27 24 22 22 19 14 11 10 9 9 8 7 6 5 4 2 1 0 0 0 0 0 0 0 0 0 0 0 0
0 0 0 0 0 0 0 1 2 3 4 4 7 17 42 68 76 72 62 48 37 29 25 23 23 19 12 8 7 7 6 5 5 5 4 2 1 0 0 0 0 0 1 1 0 0 0 0 0
0 0 0 0 0 0 0 1 2 3 3 5 14 33 57 74 78 76 70 60 51 41 31 25 24 22 16 11 9 7 5 5 4 4 3 2 2 1 0 1 1 1 2 1 0 0 0 0 0
0 0 0 0 0 0 0 1 2 1 1 5 19 45 65 74 76 74 70 65 60 51 38 28 24 22 20 17 13 10 8 6 5 4 4 3 3 2 1 2 1 1 1 1 0 0 0 0 0
0 0 0 0 0 0 0 1 1 1 1 5 22 47 66 72 72 71 68 63 58 52 42 32 27 25 25 24 19 15 11 8 7 6 5 4 3 3 3 3 1 1 0 0 0 0 0 0 0
0 0 0 0 0 0 0 1 2 2 2 6 23 46 61 65 66 67 66 59 53 48 42 36 32 29 31 33 29 19 14 12 10 8 5 3 4 6 6 4 2 1 0 0 0 0 0 0 0
0 0 0 0 0 0 0 0 2 3 5 9 22 40 52 57 61 63 63 57 50 45 41 36 32 33 36 38 33 24 18 17 12 9 6 3 4 7 8 6 3 2 1 0 0 0 0 0 0
0 0 0 0 0 0 0 0 3 7 9 12 21 35 46 52 57 58 56 54 48 42 39 34 31 34 37 37 33 26 20 17 13 9 6 3 3 6 8 5 3 2 2 1 0 0 0 0 0
0 0 0 0 0 0 0 1 4 9 11 13 21 33 43 47 49 49 48 47 44 40 37 34 32 33 36 37 33 26 20 17 14 9 5 3 1 3 5 4 3 4 4 2 1 0 0 0 0
0 0 0 0 0 0 0 1 5 8 9 12 21 31 39 42 43 42 42 42 40 37 36 35 34 35 37 37 34 28 22 18 14 8 4 2 1 2 3 4 4 5 6 4 2 1 1 0 0
0 0 0 0 0 0 0 1 4 6 7 11 20 29 34 38 40 39 39 38 36 35 36 36 36 37 37 36 32 27 21 16 12 7 3 2 2 2 3 3 4 6 7 5 3 1 1 0 0
0 0 0 0 0 0 0 1 3 4 5 10 18 25 28 33 38 40 38 37 36 37 36 36 37 37 37 35 29 24 19 14 11 8 5 3 1 1 2 4 5 5 6 5 3 1 0 0 0
0 0 0 0 0 0 0 0 2 3 5 8 15 22 24 27 34 39 39 38 39 38 35 33 34 32 32 32 29 25 22 16 11 10 7 3 1 0 1 3 3 3 3 3 3 2 1 0 0
0 0 0 0 0 0 0 1 2 2 3 7 12 19 23 23 27 31 33 35 37 36 30 27 28 26 25 27 26 24 22 15 9 9 8 4 1 0 1 1 1 1 1 1 2 2 1 0 0
0 0 0 0 0 0 0 1 1 1 2 5 11 18 23 22 19 20 23 27 32 30 25 23 24 22 20 22 21 17 15 10 7 8 9 6 2 0 0 0 0 0 0 0 1 1 0 0 0
0 0 0 0 0 0 0 0 0 0 1 4 10 17 22 21 17 15 18 22 26 26 24 24 25 21 19 18 15 11 10 8 7 9 11 8 4 1 0 0 0 0 0 0 0 0 0 0 0
0 0 0 0 0 0 0 0 0 0 0 2 8 15 20 20 19 19 22 24 24 23 24 26 24 20 17 14 10 7 8 9 9 9 10 9 5 1 0 0 0 0 1 1 1 0 0 0 0
0 0 0 0 0 0 0 0 0 0 0 1 5 11 17 18 20 23 27 28 25 22 23 24 22 17 11 7 5 5 8 10 10 8 8 7 5 1 0 0 0 1 2 2 1 0 0 0 0
0 0 0 0 0 0 0 0 0 0 0 0 2 8 15 17 18 21 25 26 23 19 19 21 18 13 9 7 7 7 9 11 10 7 5 5 3 1 1 1 1 1 2 1 1 0 0 0 0
0 0 0 0 0 0 0 0 0 0 0 0 2 8 15 16 16 18 21 21 17 14 16 17 14 12 11 11 10 8 8 8 8 6 3 2 2 1 1 1 1 1 2 1 0 0 0 0 0
0 0 0 0 0 0 0 0 0 0 0 0 2 7 13 16 17 20 22 19 15 13 14 13 12 11 11 10 8 6 6 5 6 4 2 0 0 0 0 0 0 1 1 0 0 0 0 0 0
0 0 0 0 0 0 0 0 0 0 0 0 1 4 9 13 16 21 24 22 18 15 13 11 10 9 9 7 5 4 4 4 4 3 1 0 0 0 0 0 0 0 0 0 0 0 0 0 0
0 0 0 0 0 0 0 0 0 0 0 0 0 1 5 9 13 19 24 25 20 15 12 9 8 8 7 6 5 4 3 3 3 2 1 0 0 0 0 0 0 0 0 0 0 0 0 0 0